GW6368 Weather Reports


Display with metric or nautical units.
time (UTC)temp
F
wind
direction
speed
MPH
gust
MPH
rain 1hr
in
rain 24hr
in
rain mn
in
humidity
%
barometer
mb
20260505003003 76 133 0.0 3.0 0.00 0.00 0.00 70 1010.2
20260505000003 77 130 1.0 7.0 0.00 0.00 0.00 68 1010.4
20260504233003 77 132 1.0 5.0 0.00 0.00 0.00 66 1010.6
20260504230003 78 128 1.0 8.0 0.00 0.00 0.00 65 1011.0
20260504223003 78 0 0.0 0.0 0.00 0.00 0.00 65 1011.2
20260504220003 78 121 0.0 6.0 0.00 0.00 0.00 64 1011.4
20260504213218 80 123 0.0 7.0 0.00 0.00 0.00 62 1011.8
20260504210004 81 136 1.0 7.0 0.00 0.00 0.00 58 1012.1
20260504203003 81 136 0.0 5.0 0.00 0.00 0.00 58 1012.4
20260504200003 82 130 1.0 9.0 0.00 0.00 0.00 56 1012.7
20260504193218 83 134 1.0 6.0 0.00 0.00 0.00 54 1013.0
20260504190003 82 0 0.0 0.0 0.00 0.00 0.00 54 1013.4
20260504183003 83 119 1.0 8.0 0.00 0.00 0.00 56 1013.4
20260504180004 82 126 0.0 6.0 0.00 0.00 0.00 52 1014.1
20260504173003 82 128 0.0 4.0 0.00 0.00 0.00 53 1014.4
20260504170218 80 109 0.0 3.0 0.00 0.00 0.00 55 1014.7
20260504150217 76 0 0.0 0.0 0.00 0.00 0.00 64 1015.4
20260504080217 58 0 0.0 0.0 0.00 0.00 0.00 82 1016.1
20260504050004 61 0 0.0 0.0 0.00 0.00 0.00 71 1017.9
20260504043003 62 0 0.0 0.0 0.00 0.00 0.00 66 1018.1
20260504040003 64 0 0.0 0.0 0.00 0.00 0.00 62 1018.0
20260504033003 66 0 0.0 0.0 0.00 0.00 0.00 60 1018.2
20260504030218 67 0 0.0 0.0 0.00 0.00 0.00 59 1017.9
20260504023003 68 0 0.0 0.0 0.00 0.00 0.00 57 1017.9
20260504020218 70 0 0.0 0.0 0.00 0.00 0.00 55 1017.8
20260504013003 71 142 0.0 2.0 0.00 0.00 0.00 52 1017.8
20260504010217 72 131 0.0 4.0 0.00 0.00 0.00 49 1017.6